TimeCST,TemperatureF,Dew PointF,Humidity,Sea Level PressureIn,VisibilityMPH,Wind Direction,Wind SpeedMPH,Gust SpeedMPH,PrecipitationIn,Events,Conditions,WindDirDegrees,DateUTC
12:11 AM,23.0,15.8,74,29.75,10.0,WSW,11.5,18.4,N/A,,Overcast,240,2012-11-12 06:11:00
12:31 AM,23.0,14.0,68,29.76,10.0,WSW,12.7,19.6,N/A,,Overcast,240,2012-11-12 06:31:00
12:51 AM,21.2,12.2,68,29.76,10.0,WSW,11.5,-,N/A,,Overcast,240,2012-11-12 06:51:00
1:11 AM,21.2,12.2,68,29.76,10.0,WSW,11.5,19.6,N/A,,Overcast,240,2012-11-12 07:11:00
1:31 AM,21.2,12.2,68,29.75,10.0,SW,12.7,18.4,N/A,,Overcast,230,2012-11-12 07:31:00
1:51 AM,21.2,12.2,68,29.76,10.0,SW,10.4,17.3,N/A,,Overcast,230,2012-11-12 07:51:00
2:11 AM,21.2,12.2,68,29.76,10.0,WSW,13.8,17.3,N/A,,Overcast,240,2012-11-12 08:11:00
2:31 AM,21.2,12.2,68,29.76,10.0,WSW,9.2,-,N/A,,Overcast,240,2012-11-12 08:31:00
2:51 AM,21.2,12.2,68,29.76,10.0,WSW,11.5,16.1,N/A,Snow,Light Snow,240,2012-11-12 08:51:00
3:31 AM,21.2,12.2,68,29.75,10.0,WSW,10.4,-,N/A,,Overcast,250,2012-11-12 09:31:00
3:51 AM,21.2,12.2,68,29.76,10.0,WSW,8.1,-,N/A,,Overcast,240,2012-11-12 09:51:00
4:11 AM,21.2,10.4,63,29.76,10.0,SW,12.7,18.4,N/A,,Overcast,230,2012-11-12 10:11:00
4:31 AM,21.2,10.4,63,29.76,10.0,SW,12.7,18.4,N/A,,Overcast,230,2012-11-12 10:31:00
4:51 AM,21.2,10.4,63,29.77,10.0,WSW,9.2,-,N/A,,Overcast,250,2012-11-12 10:51:00
5:11 AM,19.4,10.4,68,29.77,10.0,SW,9.2,16.1,N/A,,Overcast,220,2012-11-12 11:11:00
5:31 AM,19.4,10.4,68,29.77,10.0,SW,10.4,-,N/A,,Overcast,230,2012-11-12 11:31:00
5:51 AM,19.4,12.2,74,29.77,10.0,SW,10.4,-,N/A,,Overcast,220,2012-11-12 11:51:00
6:12 AM,19.4,12.2,74,29.77,10.0,SW,9.2,-,N/A,,Overcast,230,2012-11-12 12:12:00
6:31 AM,19.4,12.2,74,29.77,10.0,SW,11.5,-,N/A,Snow,Light Snow,230,2012-11-12 12:31:00
6:51 AM,19.4,12.2,74,29.77,7.0,SW,11.5,-,N/A,Snow,Light Snow,230,2012-11-12 12:51:00
7:12 AM,19.4,12.2,74,29.78,4.0,SW,10.4,-,N/A,Snow,Light Snow,220,2012-11-12 13:12:00
7:31 AM,19.4,12.2,74,29.78,2.5,SW,10.4,-,N/A,Snow,Light Snow,230,2012-11-12 13:31:00
7:51 AM,19.4,14.0,80,29.79,2.5,SW,9.2,-,N/A,Snow,Light Snow,220,2012-11-12 13:51:00
8:11 AM,19.4,14.0,80,29.79,1.0,WSW,8.1,-,N/A,Snow,Light Snow,240,2012-11-12 14:11:00
8:31 AM,19.4,12.2,74,29.79,4.0,WSW,8.1,-,N/A,Snow,Light Snow,250,2012-11-12 14:31:00
8:52 AM,19.4,12.2,74,29.80,0.8,WSW,15.0,19.6,N/A,Snow,Light Snow,240,2012-11-12 14:52:00
9:11 AM,19.4,12.2,74,29.80,3.0,WSW,10.4,18.4,N/A,,Haze,250,2012-11-12 15:11:00
9:31 AM,19.4,12.2,74,29.80,3.0,WSW,13.8,-,N/A,Snow,Light Snow,250,2012-11-12 15:31:00
9:51 AM,19.4,12.2,74,29.81,4.0,WSW,11.5,-,N/A,Snow,Light Snow,240,2012-11-12 15:51:00
10:11 AM,19.4,12.2,74,29.81,3.0,WSW,8.1,17.3,N/A,Snow,Light Snow,240,2012-11-12 16:11:00
10:51 AM,21.2,12.2,68,29.82,10.0,West,11.5,17.3,N/A,,Overcast,260,2012-11-12 16:51:00
11:11 AM,21.2,12.2,68,29.82,4.0,West,12.7,19.6,N/A,Snow,Light Snow,260,2012-11-12 17:11:00
11:51 AM,21.2,12.2,68,29.82,7.0,WSW,11.5,18.4,N/A,Snow,Light Snow,250,2012-11-12 17:51:00
12:11 PM,23.0,12.2,63,29.82,7.0,WSW,11.5,18.4,N/A,Snow,Light Snow,250,2012-11-12 18:11:00
12:31 PM,24.8,14.0,64,29.82,10.0,SW,15.0,20.7,N/A,Snow,Light Snow,230,2012-11-12 18:31:00
12:51 PM,24.8,14.0,64,29.82,10.0,West,10.4,23.0,N/A,,Overcast,270,2012-11-12 18:51:00
1:11 PM,24.8,12.2,59,29.83,5.0,West,15.0,24.2,N/A,Snow,Light Snow,260,2012-11-12 19:11:00
1:32 PM,24.8,15.8,69,29.84,7.0,WSW,10.4,17.3,N/A,,Overcast,250,2012-11-12 19:32:00
1:51 PM,24.8,14.0,64,29.84,7.0,West,12.7,18.4,N/A,,Overcast,260,2012-11-12 19:51:00
2:11 PM,24.8,14.0,64,29.85,7.0,WSW,13.8,20.7,N/A,,Overcast,250,2012-11-12 20:11:00
2:32 PM,24.8,14.0,64,29.86,10.0,West,10.4,17.3,N/A,,Overcast,260,2012-11-12 20:32:00
2:51 PM,24.8,14.0,64,29.87,10.0,WSW,12.7,19.6,N/A,,Overcast,250,2012-11-12 20:51:00
3:11 PM,23.0,15.8,74,29.88,7.0,WSW,12.7,17.3,N/A,Snow,Light Snow,250,2012-11-12 21:11:00
3:32 PM,23.0,15.8,74,29.89,7.0,WSW,11.5,-,N/A,Snow,Light Snow,250,2012-11-12 21:32:00
3:51 PM,23.0,15.8,74,29.90,7.0,West,11.5,18.4,N/A,Snow,Light Snow,260,2012-11-12 21:51:00
4:11 PM,23.0,15.8,74,29.91,10.0,West,11.5,16.1,N/A,,Overcast,260,2012-11-12 22:11:00
4:32 PM,23.0,15.8,74,29.92,5.0,WSW,11.5,-,N/A,Snow,Light Snow,250,2012-11-12 22:32:00
4:51 PM,23.0,15.8,74,29.94,7.0,WSW,10.4,18.4,N/A,Snow,Light Snow,250,2012-11-12 22:51:00
5:11 PM,23.0,15.8,74,29.95,5.0,WSW,9.2,-,N/A,Snow,Light Snow,250,2012-11-12 23:11:00
5:32 PM,23.0,15.8,74,29.96,7.0,WSW,10.4,-,N/A,Snow,Light Snow,250,2012-11-12 23:32:00
5:51 PM,23.0,15.8,74,29.97,7.0,WSW,10.4,-,N/A,Snow,Light Snow,250,2012-11-12 23:51:00
6:11 PM,23.0,15.8,74,29.98,7.0,West,10.4,19.6,N/A,Snow,Light Snow,260,2012-11-13 00:11:00
6:32 PM,23.0,15.8,74,29.99,7.0,WSW,12.7,17.3,N/A,Snow,Light Snow,250,2012-11-13 00:32:00
6:51 PM,23.0,15.8,74,30.00,7.0,WSW,15.0,21.9,N/A,Snow,Light Snow,250,2012-11-13 00:51:00
7:11 PM,23.0,15.8,74,30.01,10.0,West,10.4,20.7,N/A,,Overcast,260,2012-11-13 01:11:00
7:32 PM,23.0,15.8,74,30.02,10.0,West,10.4,18.4,N/A,,Overcast,260,2012-11-13 01:32:00
7:51 PM,23.0,15.8,74,30.03,10.0,West,11.5,18.4,N/A,,Overcast,260,2012-11-13 01:51:00
8:11 PM,23.0,15.8,74,30.04,10.0,West,12.7,19.6,N/A,,Overcast,260,2012-11-13 02:11:00
8:32 PM,23.0,15.8,74,30.06,10.0,West,9.2,19.6,N/A,,Overcast,260,2012-11-13 02:32:00
8:51 PM,23.0,15.8,74,30.07,10.0,West,12.7,19.6,N/A,,Overcast,260,2012-11-13 02:51:00
9:11 PM,23.0,15.8,74,30.07,10.0,West,9.2,17.3,N/A,,Overcast,280,2012-11-13 03:11:00
9:31 PM,23.0,15.8,74,30.08,10.0,West,12.7,20.7,N/A,,Overcast,280,2012-11-13 03:31:00
9:51 PM,23.0,15.8,74,30.08,10.0,WNW,9.2,19.6,N/A,,Mostly Cloudy,290,2012-11-13 03:51:00
10:11 PM,21.2,14.0,74,30.08,10.0,WNW,11.5,21.9,N/A,,Mostly Cloudy,290,2012-11-13 04:11:00
10:32 PM,21.2,15.8,80,30.09,10.0,WNW,8.1,18.4,N/A,,Mostly Cloudy,290,2012-11-13 04:32:00
10:51 PM,21.2,15.8,80,30.09,10.0,West,9.2,-,N/A,,Mostly Cloudy,280,2012-11-13 04:51:00
11:11 PM,21.2,14.0,74,30.10,10.0,West,9.2,17.3,N/A,,Mostly Cloudy,270,2012-11-13 05:11:00
11:32 PM,21.2,15.8,80,30.12,10.0,WSW,5.8,-,N/A,,Overcast,240,2012-11-13 05:32:00
11:51 PM,21.2,15.8,80,30.13,10.0,West,9.2,19.6,N/A,,Overcast,260,2012-11-13 05:51:00